Location: Colossi of Memnon
(25.7167°N, 32.6167°E)
Time: 11:12:30
(UTC+00:00)

PSLV R/B - Pass Details

Date: 05 March 2021
Orbit: 502 x 579 km, 97.8° (Epoch: 09 April)

Event Time Altitude Azimuth Distance (km) Brightness Sun altitude
Rises 03:36:08 0° 12° (NNE) 2,717 7.5 -8.2°
Reaches altitude 10° 03:38:17 10° 13° (NNE) 1,808 6.6 -7.7°
Maximum altitude 03:42:11 84° 102° (ESE) 539 3.8 -6.8°
Drops below altitude 10° 03:45:58 10° 190° (S) 1,754 6.3 -6.0°
Sets 03:48:02 0° 191° (S) 2,627 7.2 -5.5°
